This demonstration page uses our WeatherBlox Daily Observations layout. Learn more.

Left ArrowRight Arrow

38.20091, -84.87328

Hourly Observations for April 12, 2020

Temp ( °F °C ) Dew Point ( °F °C ) Humidity (%) Winds ( mph kmh ) Pressure ( in mb ) Visibility ( mi km ) Precip ( " mm )
12:53 am 00:53 Mostly Cloudy 55 12.8 33 0.6 44 44 S 5 7 29.88 1012 10 16 0.00 0.00
1:53 am 01:53 Cloudy 52 11.1 38 3.3 59 59 E 5 7 29.88 1012 10 16 0.00 0.00
2:53 am 02:53 Cloudy 54 12.2 33 0.6 45 45 SE 7 11 29.85 1011 10 16 0.00 0.00
3:53 am 03:53 Cloudy 55 12.8 32 0 42 42 SSE 6 9 29.86 1011 10 16 0.00 0.00
4:53 am 04:53 Cloudy 54 12.2 33 0.6 45 45 SSE 5 7 29.86 1011 10 16 0.00 0.00
5:53 am 05:53 Cloudy 54 12.2 34 1.1 47 47 SE 6 9 29.85 1011 10 16 0.00 0.00
6:53 am 06:53 Mostly Cloudy 55 12.8 34 1.1 45 45 SE 5 7 29.85 1011 10 16 0.00 0.00
7:53 am 07:53 Cloudy 58 14.4 36 2.2 44 44 S 7 11 29.86 1011 10 16 0.00 0.00
8:53 am 08:53 Cloudy 58 14.4 42 5.6 56 56 SSW 12 19 29.89 1012 10 16 0.00 0.00
9:53 am 09:53 Cloudy 59 15 45 7.2 60 60 S 10 17 29.88 1012 10 16 0.00 0.00
10:53 am 10:53 Partly Cloudy 62 16.7 45 7.2 54 54 S 15 24 29.83 1010 10 16 0.00 0.00
11:53 am 11:53 Cloudy 60 15.6 46 7.8 60 60 S 14 22 29.87 1011 10 16 0.00 0.00
12:53 pm 12:53 Cloudy 61 16.1 48 8.9 63 63 SSE 12 19 29.84 1011 10 16 0.00 0.00
1:53 pm 13:53 Cloudy 61 16.1 48 8.9 63 63 SSE 12 19 29.81 1010 10 16 0.00 0.00
2:53 pm 14:53 Cloudy 62 16.7 47 8.3 58 58 SSE 16 26 29.76 1008 10 16 0.00 0.00
3:53 pm 15:53 Cloudy 60 15.6 48 8.9 65 65 SSE 16 26 29.72 1007 10 16 0.00 0.00
4:53 pm 16:53 Cloudy 59 15 50 10 72 72 SSE 10 17 29.69 1005 10 16 0.00 0.00
5:53 pm 17:53 Cloudy with Rain 56 13.3 52 11.1 87 87 ESE 7 11 29.65 1004 3 5 0.08 2.03
6:06 pm 18:06 Cloudy with Rain 56 13.3 53 11.7 90 90 ESE 7 11 29.66 1004 3 4 0.03 0.76
6:18 pm 18:18 Cloudy with Heavy Rain 56 13.3 53 11.7 90 90 SE 10 17 29.65 1004 1 2 0.13 3.30
6:31 pm 18:31 Cloudy with Heavy Rain 55 12.8 53 11.7 93 93 SE 10 17 29.65 1004 1 2 0.26 6.60
6:53 pm 18:53 Cloudy with Rain 55 12.8 53 11.7 93 93 Calm 29.64 1004 2 3 0.43 10.92
7:00 pm 19:00 Cloudy with Heavy Rain 55 12.8 54 12.2 96 96 Calm 29.65 1004 1 2 0.04 1.02
7:03 pm 19:03 Cloudy with Heavy Rain 55 12.8 53 11.7 93 93 Calm 29.64 1004 1 1 0.08 2.03
7:11 pm 19:11 Cloudy with Heavy Rain 56 13.3 53 11.7 90 90 E 6 9 29.64 1004 1 2 0.15 3.81
7:14 pm 19:14 Cloudy with Heavy Rain 56 13.3 53 11.7 90 90 ESE 3 6 29.63 1003 1 2 0.18 4.57
7:18 pm 19:18 Cloudy with Heavy Rain 56 13.3 53 11.7 90 90 VRB 3 6 29.64 1004 2 2 0.21 5.33
7:25 pm 19:25 Cloudy with Heavy Rain 56 13.3 53 11.7 90 90 E 5 7 29.62 1003 1 2 0.26 6.60
7:32 pm 19:32 Cloudy with Rain 56 13.3 54 12.2 93 93 Calm 29.62 1003 2 2 0.29 7.37
7:39 pm 19:39 Cloudy with Heavy Rain 56 13.3 54 12.2 93 93 Calm 29.61 1003 2 2 0.33 8.38
7:53 pm 19:53 Cloudy with Rain 55 12.8 53 11.7 93 93 ENE 13 20 29.51 999 2 3 0.39 9.91
7:56 pm 19:56 Cloudy with Light Rain 55 12.8 53 11.7 93 93 ENE 14 22 29.49 999 2 3 0.00 0.00
7:58 pm 19:58 Cloudy with Light Rain 55 12.8 53 11.7 93 93 E 14 22 29.49 999 1 1 0.00 0.00
8:08 pm 20:08 Cloudy with Mist and Fog 55 12.8 54 12.2 96 96 NE 8 13 29.53 1000 1 2 0.00 0.00
8:10 pm 20:10 Cloudy with Mist and Fog 55 12.8 54 12.2 96 96 NE 7 11 29.53 1000 4 6 0.00 0.00
8:34 pm 20:34 Cloudy 56 13.3 53 11.7 90 90 ENE 5 7 29.54 1000 10 16 0.00 0.00
8:53 pm 20:53 Cloudy 56 13.3 53 11.7 90 90 E 7 11 29.51 999 10 16 0.00 0.00
9:07 pm 21:07 Cloudy with Light Rain 56 13.3 53 11.7 90 90 E 6 9 29.52 1000 5 8 0.00 0.00
9:30 pm 21:30 Cloudy with Light Rain 56 13.3 54 12.2 93 93 E 6 9 29.52 1000 4 6 0.02 0.51
9:53 pm 21:53 Cloudy 56 13.3 54 12.2 93 93 ESE 5 7 29.48 998 10 16 0.02 0.51
10:53 pm 22:53 Cloudy 59 15 55 12.8 87 87 SSE 7 11 29.46 998 10 16 0.00 0.00
11:21 pm 23:21 Cloudy 59 15 56 13.3 90 90 SE 5 7 29.45 997 10 16 0.00 0.00
11:53 pm 23:53 Cloudy 59 15 56 13.3 90 90 ESE 8 13 29.39 995 10 16 0.00 0.00

Powered by AerisWeather